Location: Kellogg
(38.0159°N, 90.0546°W)
Time: 23:16:07
(UTC+00:00)

Tiros 1 - All Passes

Search period start: 11 September 2024 00:00
Search period end: 21 September 2024 00:00
Orbit: 623 x 655 km, 48.4° (Epoch: 11 September)

Date Brightness Start Highest point End Pass type
(mag) Time Alt. Az. Time Alt. Az. Time Alt. Az.
11 Sep - 00:27:45 10° W 00:31:53 32° NNW 00:36:03 10° NE daylight
11 Sep - 02:11:17 10° NW 02:14:56 22° N 02:18:37 10° NE visible
11 Sep - 03:53:33 10° NW 03:57:54 38° NNE 04:02:17 10° E visible
11 Sep - 05:35:30 10° WNW 05:40:04 55° SW 05:44:41 10° SE night (unlit)
11 Sep - 21:27:27 10° SSW 21:31:19 28° SE 21:35:14 10° ENE daylight
11 Sep - 23:08:36 10° WSW 23:13:07 58° NNW 23:17:40 10° NE daylight
12 Sep - 00:52:03 10° WNW 00:55:50 24° N 00:59:39 10° NE visible
12 Sep - 02:35:05 10° NW 02:38:57 25° NNE 02:42:51 10° ENE visible
12 Sep - 04:16:58 10° NW 04:21:37 64° NNE 04:26:18 10° ESE visible
12 Sep - 05:59:32 10° W 06:03:21 25° SW 06:07:12 10° S night (unlit)
12 Sep - 21:50:07 10° SW 21:54:37 62° SE 21:59:10 10° ENE daylight
12 Sep - 23:32:39 10° W 23:36:51 35° NNW 23:41:06 10° NE daylight
13 Sep - 01:16:13 10° NW 01:19:51 22° N 01:23:30 10° NE visible
13 Sep - 02:58:36 10° NW 03:02:52 34° NNE 03:07:08 10° E visible
13 Sep - 04:40:30 10° WNW 04:45:07 65° SW 04:49:47 10° SE visible
13 Sep - 06:25:33 10° WSW 06:26:28 10° SW 06:27:21 10° SW night (unlit)
13 Sep - 20:32:48 10° S 20:36:25 23° SE 20:40:03 10° E daylight
13 Sep - 22:13:34 10° WSW 22:18:06 66° NNW 22:22:42 10° NE daylight
13 Sep - 23:56:54 10° WNW 00:00:45 25° NNW 00:04:37 10° NE daylight
14 Sep - 01:40:05 10° NW 01:43:52 24° N 01:47:41 10° ENE visible
14 Sep - 03:22:00 10° NW 03:26:36 56° NNE 03:31:12 10° ESE visible
14 Sep - 05:04:22 10° WNW 05:08:25 29° SW 05:12:30 10° SSE night (unlit)
14 Sep - 20:55:14 10° SW 20:59:39 52° SE 21:04:07 10° ENE daylight
14 Sep - 22:37:31 10° W 22:41:47 38° NNW 22:46:07 10° NE daylight
15 Sep - 00:21:07 10° NW 00:24:44 22° N 00:28:23 10° NE daylight
15 Sep - 02:03:37 10° NW 02:07:47 31° NNE 02:11:57 10° E visible
15 Sep - 03:45:29 10° WNW 03:50:08 76° SW 03:54:49 10° SE visible
15 Sep - 05:29:26 10° WSW 05:31:33 13° SW 05:33:39 10° SSW night (unlit)
15 Sep - 19:38:13 10° S 19:41:29 19° SE 19:44:46 10° E daylight
15 Sep - 21:18:31 10° WSW 21:23:05 76° NNW 21:27:41 10° NE daylight
15 Sep - 23:01:44 10° WNW 23:05:38 27° NNW 23:09:34 10° NE daylight
16 Sep - 00:45:02 10° NW 00:48:45 23° N 00:52:29 10° ENE visible
16 Sep - 02:27:01 10° NW 02:31:32 50° NNE 02:36:05 10° ESE visible
16 Sep - 04:09:14 10° WNW 04:13:27 35° SW 04:17:43 10° SSE visible
16 Sep - 20:00:21 10° SSW 20:04:40 43° SE 20:09:01 10° ENE daylight
16 Sep - 21:42:21 10° W 21:46:42 42° NNW 21:51:05 10° NE daylight
16 Sep - 23:25:57 10° WNW 23:29:35 22° N 23:33:15 10° NE daylight
17 Sep - 01:08:36 10° NW 01:12:39 29° NNE 01:16:44 10° ENE visible
17 Sep - 02:50:26 10° WNW 02:55:06 88° SSW 02:59:47 10° SE visible
17 Sep - 04:33:50 10° W 04:36:36 16° SW 04:39:22 10° SSW night (unlit)
17 Sep - 18:43:42 10° S 18:46:32 16° SE 18:49:21 10° E daylight
17 Sep - 20:23:27 10° SW 20:28:03 88° NNW 20:32:38 10° NE daylight
17 Sep - 22:06:32 10° WNW 22:10:30 28° NNW 22:14:30 10° NE daylight
17 Sep - 23:49:56 10° NW 23:53:35 23° N 23:57:15 10° ENE daylight
18 Sep - 01:32:00 10° NW 01:36:26 44° NNE 01:40:53 10° E visible
18 Sep - 03:14:05 10° WNW 03:18:27 41° SW 03:22:50 10° SSE visible
18 Sep - 19:05:28 10° SSW 19:09:39 36° SE 19:13:52 10° ENE daylight
18 Sep - 20:47:10 10° W 20:51:36 47° NNW 20:56:02 10° NE daylight
18 Sep - 22:30:45 10° WNW 22:34:25 23° N 22:38:06 10° NE daylight
19 Sep - 00:13:33 10° NW 00:17:30 27° NNE 00:21:29 10° ENE daylight
19 Sep - 01:55:23 10° NW 02:00:01 81° NNE 02:04:41 10° ESE visible
19 Sep - 03:38:23 10° W 03:41:37 19° SW 03:44:50 10° S visible
19 Sep - 17:49:20 10° SSE 17:51:33 13° SE 17:53:45 10° E daylight
19 Sep - 19:28:23 10° SW 19:32:58 80° SE 19:37:34 10° ENE daylight
19 Sep - 21:11:17 10° W 21:15:20 30° NNW 21:19:24 10° NE daylight
19 Sep - 22:54:46 10° NW 22:58:23 22° N 23:02:00 10° NE daylight
20 Sep - 00:36:57 10° NW 00:41:17 40° NNE 00:45:40 10° E visible
20 Sep - 02:18:56 10° WNW 02:23:23 49° SW 02:27:53 10° SE visible
20 Sep - 18:10:36 10° SSW 18:14:37 31° SE 18:18:38 10° ENE daylight
20 Sep - 19:51:59 10° WSW 19:56:28 53° NNW 20:00:57 10° NE daylight
20 Sep - 21:35:30 10° WNW 21:39:13 23° N 21:42:56 10° NE daylight
20 Sep - 23:18:27 10° NW 23:22:18 26° NNE 23:26:11 10° ENE daylight
